Вернуться в каталог

ATLAS 5 CENTAUR DEB

LostHEO
NORAD 44676·DEBRIS·🇺🇸 United States

Запущен Oct 17, 2018 с Cape Canaveral Space Force Station

Loading…

Ближайшие Пролёты (ближайшие 24 часа)

TLE

УстаревшееSource: Space-Track

Эпоха: Apr 22, 2025, 18:57 UTC

1 44676U 18079AN  25112.78985214 -.00000040  00000-0  00000+0 0  9991
2 44676  12.9959  62.1312 4836573 260.0852  44.1776  1.82796239 39196

Отслеживайте ATLAS 5 CENTAUR DEB в реальном времени с AllMySat

Download on the App Store